Location: Holmbach
(49.5093°N, 8.8411°E)
Time: 05:00:32
(UTC+00:00)

Okean 3 - Pass Details

Date: 17 June 2025
Orbit: 547 x 569 km, 82.5° (Epoch: 12 July)

Event Time Altitude Azimuth Distance (km) Brightness Sun altitude
Exits shadow 21:45:02 17° 191° (S) 1,438 5.0 -13.7°
Maximum altitude 21:48:06 86° 280° (W) 570 3.3 -13.9°
Drops below altitude 10° 21:52:12 10° 9° (N) 1,858 6.9 -14.2°
Sets 21:54:23 0° 10° (N) 2,754 7.9 -14.3°
